EW4366 Weather Reports


time (UTC)temp
F
wind
direction
speed
knots
gust
knots
rain 1hr
in
rain 24hr
in
rain mn
in
humidity
%
barometer
mb
20260508102037 35 0.0 0.0 0.00 0.00 0.00 88 1016.4
20260508101037 35 0.0 0.0 0.00 0.00 0.00 88 1016.3
20260508100036 36 0.0 0.0 0.00 0.00 0.00 88 1016.1
20260508095036 36 0.0 0.0 0.00 0.00 0.00 88 1016.0
20260508094037 36 0.0 0.0 0.00 0.00 0.00 88 1016.1
20260508093036 36 0.0 0.0 0.00 0.00 0.00 88 1015.9
20260508092016 36 0.0 0.0 0.00 0.00 0.00 88 1015.9
20260508091016 36 0.0 0.0 0.00 0.00 0.00 89 1015.8
20260508090016 36 0.0 0.0 0.00 0.00 0.00 89 1015.6
20260508085016 37 0.0 0.0 0.00 0.00 0.00 89 1015.7
20260508084016 37 0.0 0.0 0.00 0.00 0.00 89 1015.5
20260508083016 37 0.0 0.0 0.00 0.00 0.00 89 1015.6
20260508082016 38 0.0 0.0 0.00 0.00 0.00 89 1015.4
20260508081016 38 0.0 0.0 0.00 0.00 0.00 89 1015.3
20260508080016 38 0.0 0.0 0.00 0.00 0.00 88 1015.2
20260508075016 39 0.0 0.0 0.00 0.00 0.00 88 1015.4
20260508074016 39 0.0 0.0 0.00 0.00 0.00 89 1015.2
20260508073016 39 0.0 0.0 0.00 0.00 0.00 89 1015.1
20260508072016 39 0.0 0.0 0.00 0.00 0.00 88 1014.9
20260508071016 40 0.0 0.0 0.00 0.00 0.00 89 1014.9
20260508070016 40 0.0 0.0 0.00 0.00 0.00 89 1014.9
20260508065016 40 0.0 0.0 0.00 0.00 0.00 88 1014.9
20260508064036 40 0.0 0.0 0.00 0.00 0.00 89 1014.8
20260508063016 41 0.0 0.0 0.00 0.00 0.00 89 1014.7
20260508062016 41 0.0 0.0 0.00 0.00 0.00 89 1015.0
20260508061016 41 0.0 0.0 0.00 0.00 0.00 89 1014.9
20260508060016 42 0.0 0.0 0.00 0.00 0.00 89 1014.9
20260508055016 42 0.0 0.0 0.00 0.00 0.00 89 1015.1
20260508054036 42 0.0 0.0 0.00 0.00 0.00 88 1014.9
20260508053016 42 0.0 0.0 0.00 0.00 0.00 89 1014.6
20260508052016 43 0.0 0.0 0.00 0.00 0.00 88 1014.7
20260508051016 43 0.0 0.0 0.00 0.00 0.00 89 1014.4
20260508050016 43 0.0 0.0 0.00 0.00 0.00 88 1014.2
20260508045016 44 0.0 0.9 0.00 0.00 0.00 88 1014.0
20260508044016 44 0.0 0.0 0.00 0.00 0.00 88 1013.9
20260508043016 44 0.0 0.0 0.00 0.00 0.00 88 1013.9
20260508042016 45 0.0 0.0 0.00 0.00 0.00 88 1013.9
20260508041036 45 0.0 0.0 0.00 0.00 0.00 87 1013.7
20260508040016 46 0.0 0.0 0.00 0.00 0.00 87 1013.8
20260508035016 46 0.0 0.0 0.00 0.00 0.00 87 1013.6
20260508034036 46 0.0 0.0 0.00 0.00 0.00 86 1013.4
20260508033036 47 0.0 0.0 0.00 0.00 0.00 86 1013.4
20260508032016 47 0.0 0.0 0.00 0.00 0.00 85 1013.4
20260508031017 48 0.0 0.0 0.00 0.00 0.00 84 1013.4
20260508030016 49 0.0 0.0 0.00 0.00 0.00 83 1013.3
20260508025016 49 0.0 0.0 0.00 0.00 0.00 82 1013.1
20260508024016 50 0.0 1.7 0.00 0.00 0.00 82 1013.0
20260508023016 50 0.0 0.0 0.00 0.00 0.00 81 1012.9
20260508022016 51 0.0 0.0 0.00 0.00 0.00 79 1012.8
20260508021016 52 0.0 0.0 0.00 0.00 0.00 77 1012.5
20260508020016 53 0.0 0.0 0.00 0.00 0.00 75 1012.4
20260508015016 53 0.0 0.0 0.00 0.00 0.00 71 1012.4
20260508014036 53 0.0 0.0 0.00 0.00 0.00 75 1012.2
20260508013016 53 0.0 0.9 0.00 0.00 0.00 74 1012.1
20260508012016 53 270 0.9 2.6 0.00 0.00 0.00 73 1011.8
20260508011016 53 225 0.9 2.6 0.00 0.00 0.00 76 1011.7
20260508010036 53 0.0 0.0 0.00 0.00 0.00 74 1011.7
20260508005016 54 0.0 0.0 0.00 0.00 0.00 73 1011.5
20260508004016 54 225 0.9 2.6 0.00 0.00 0.00 71 1011.5
20260508003016 55 0.0 0.0 0.00 0.01 0.00 71 1011.6
20260508002015 55 0.0 0.0 0.00 0.01 0.00 68 1011.4
20260508001016 56 0.0 0.0 0.00 0.01 0.00 66 1011.5
20260508000015 57 0.0 0.0 0.00 0.01 0.00 62 1011.3
20260507235016 57 0.0 0.0 0.00 0.01 0.00 61 1011.3
20260507234036 58 0.0 0.0 0.00 0.01 0.00 62 1011.3
20260507233016 58 0.0 1.7 0.00 0.01 0.00 61 1011.2
20260507232015 58 225 1.7 6.1 0.00 0.01 0.00 59 1011.2
20260507231015 59 0.0 0.9 0.00 0.01 0.00 59 1011.2
20260507230016 58 203 0.9 2.6 0.00 0.01 0.00 61 1011.2
20260507225036 58 203 1.7 6.1 0.00 0.01 0.00 60 1011.1
20260507224015 58 158 0.9 1.7 0.00 0.01 0.00 60 1011.0
20260507223015 58 0.0 0.9 0.00 0.01 0.00 60 1010.9
20260507222036 59 0.0 0.0 0.00 0.01 0.00 61 1010.7
20260507221016 59 0.0 0.9 0.00 0.01 0.00 60 1010.8
20260507220036 59 0.0 0.9 0.00 0.01 0.00 62 1010.6
20260507215015 59 0.0 0.9 0.00 0.01 0.00 60 1010.6
20260507214015 60 0.0 0.0 0.00 0.01 0.00 60 1010.7
20260507213015 60 270 0.9 1.7 0.00 0.01 0.00 59 1010.5
20260507212016 61 0 1.7 4.3 0.00 0.01 0.00 59 1010.5
20260507211015 60 293 1.7 3.5 0.00 0.01 0.00 61 1010.2
20260507210015 61 225 0.9 2.6 0.00 0.01 0.00 59 1010.1
20260507205017 61 225 0.9 3.5 0.00 0.01 0.00 60 1010.0
20260507204017 61 270 0.9 1.7 0.00 0.01 0.00 63 1010.3
20260507203037 59 270 2.6 5.2 0.00 0.01 0.00 65 1010.4
20260507202037 59 0.0 1.7 0.00 0.01 0.00 66 1010.3
20260507201018 59 270 0.9 3.5 0.00 0.01 0.00 64 1010.1
20260507200017 59 0.0 1.7 0.00 0.01 0.00 64 1010.1
20260507195017 59 0.0 1.7 0.00 0.01 0.00 64 1010.2
20260507194017 59 248 1.7 7.0 0.00 0.01 0.00 65 1010.2
20260507193017 58 0.0 0.9 0.00 0.01 0.00 66 1010.3
20260507192018 58 270 0.9 2.6 0.00 0.01 0.00 67 1010.5
20260507191017 58 0.0 0.9 0.00 0.01 0.00 69 1010.8
20260507190017 58 0.0 0.0 0.00 0.01 0.00 71 1010.8
20260507185017 58 0.0 0.0 0.00 0.01 0.00 71 1010.8
20260507184036 58 203 0.9 1.7 0.00 0.01 0.00 73 1010.8
20260507183017 57 0.0 0.0 0.00 0.01 0.00 74 1010.8
20260507182017 57 0.0 0.0 0.00 0.01 0.00 75 1011.0
20260507181017 57 0.0 0.9 0.00 0.01 0.00 75 1011.0
20260507180017 56 0.0 0.0 0.00 0.01 0.00 76 1010.9
20260507175017 56 0.0 0.0 0.00 0.01 0.00 77 1011.0
20260507174017 56 0.0 0.0 0.00 0.01 0.00 75 1011.1
20260507173017 56 158 0.9 2.6 0.00 0.01 0.00 73 1011.1
20260507172017 56 0.0 0.0 0.00 0.01 0.00 77 1011.3
20260507171037 56 0.0 0.0 0.00 0.01 0.00 75 1011.2
20260507170017 55 0.0 0.0 0.00 0.01 0.00 76 1011.5
20260507165017 55 0.0 0.0 0.00 0.01 0.00 78 1011.5
20260507164017 55 0.0 0.0 0.00 0.01 0.00 76 1011.8
20260507163017 54 0.0 0.9 0.00 0.01 0.00 78 1011.6
20260507162017 54 0.0 0.0 0.00 0.01 0.00 78 1011.6
20260507161017 53 0.0 0.0 0.00 0.01 0.00 76 1011.8
20260507160017 53 0.0 0.0 0.00 0.01 0.00 78 1011.8
20260507155017 53 0.0 0.0 0.00 0.01 0.00 77 1011.9
20260507154017 52 0.0 0.0 0.00 0.01 0.00 79 1011.8
20260507153017 52 0.0 0.0 0.00 0.01 0.00 82 1011.8
20260507152037 51 0.0 0.0 0.00 0.01 0.00 80 1011.9
20260507151017 51 0.0 0.0 0.00 0.01 0.00 81 1011.9
20260507150017 51 0.0 0.0 0.00 0.01 0.00 82 1011.9
20260507145017 51 0.0 0.9 0.00 0.01 0.00 84 1011.9
20260507144017 51 0.0 0.0 0.00 0.01 0.00 83 1012.1
20260507143017 51 0.0 0.0 0.00 0.01 0.00 82 1012.2
20260507142017 51 0.0 0.9 0.00 0.01 0.00 84 1012.2
20260507141017 51 0.0 0.9 0.00 0.01 0.00 82 1012.1
20260507140037 51 0.0 0.0 0.00 0.01 0.00 84 1012.0
20260507135037 51 0.0 0.0 0.00 0.01 0.00 85 1012.1
20260507134017 51 0.0 0.0 0.00 0.01 0.00 85 1012.1
20260507133017 51 0.0 0.0 0.00 0.01 0.00 85 1012.4
20260507132037 51 158 0.9 2.6 0.00 0.01 0.00 86 1012.4
20260507131017 51 0.0 0.0 0.00 0.01 0.00 86 1012.5
20260507130037 51 90 3.5 7.0 0.00 0.01 0.00 87 1012.4
20260507125016 51 0.0 0.9 0.00 0.01 0.00 87 1012.6
20260507124017 51 293 0.9 1.7 0.00 0.02 0.00 87 1012.7
20260507123017 51 0.0 0.0 0.00 0.02 0.00 87 1012.5
20260507122016 51 0.0 0.0 0.00 0.02 0.00 87 1012.5
20260507121038 51 0.0 0.0 0.00 0.02 0.00 87 1012.2
20260507120017 52 0.0 0.0 0.00 0.02 0.00 87 1012.1
20260507115017 52 293 0.9 2.6 0.00 0.02 0.00 87 1012.0
20260507114016 52 0.0 0.0 0.00 0.02 0.00 88 1012.2
20260507113016 52 0.0 1.7 0.00 0.02 0.00 88 1011.9
20260507112017 52 0.0 0.0 0.00 0.02 0.00 88 1012.0
20260507111017 52 0.0 0.9 0.00 0.02 0.00 88 1012.0
20260507110037 52 0.0 0.0 0.00 0.02 0.00 88 1011.7
20260507105036 52 0.0 0.0 0.00 0.02 0.00 88 1011.4
20260507104016 52 0.0 0.0 0.00 0.02 0.00 88 1011.7
20260507103037 52 0.0 0.0 0.00 0.02 0.00 88 1011.3